******** Week 146 almanac for PRN-1 ******** ID: 1 Health: 0 Eccentricity: 0.01128292084 Time of Applicability(s): 61440 Orbital Inclination(rad): 0.9864778778 Rate of Right Ascen(r/s): -7.748894201e-09 SQRT(A) (m 1/2): 5153.62793 Right Ascen at Week(rad): -1.534060184 Argument of Perigee(rad): 0.8817022716 Mean Anom(rad): 2.843420645 Af0(s): 0.0003557342773 Af1(s/s): -1.091394e-11 week: 146 ******** Week 146 almanac for PRN-2 ******** ID: 2 Health: 0 Eccentricity: 0.02068519592 Time of Applicability(s): 61440 Orbital Inclination(rad): 0.9648283755 Rate of Right Ascen(r/s): -7.886042771e-09 SQRT(A) (m 1/2): 5153.632812 Right Ascen at Week(rad): -1.622891753 Argument of Perigee(rad): -1.452906009 Mean Anom(rad): 3.00087838 Af0(s): -0.0005132522095 Af1(s/s): 0 week: 146 ******** Week 146 almanac for PRN-3 ******** ID: 3 Health: 0 Eccentricity: 0.003862380981 Time of Applicability(s): 61440 Orbital Inclination(rad): 0.9724922874 Rate of Right Ascen(r/s): -8.034620388e-09 SQRT(A) (m 1/2): 5153.640625 Right Ascen at Week(rad): -0.4985205368 Argument of Perigee(rad): 0.9721281171 Mean Anom(rad): 1.677699733 Af0(s): -7.084538574e-05 Af1(s/s): -1.455192e-11 week: 146 ******** Week 146 almanac for PRN-4 ******** ID: 4 Health: 0 Eccentricity: 0.001659870148 Time of Applicability(s): 61440 Orbital Inclination(rad): 0.9612151317 Rate of Right Ascen(r/s): -7.817468486e-09 SQRT(A) (m 1/2): 5153.611328 Right Ascen at Week(rad): 0.5823131139 Argument of Perigee(rad): -3.094964283 Mean Anom(rad): -1.627629642 Af0(s): -0.0001529958862 Af1(s/s): 3.637979e-12 week: 146 ******** Week 146 almanac for PRN-5 ******** ID: 5 Health: 0 Eccentricity: 0.005881786346 Time of Applicability(s): 61440 Orbital Inclination(rad): 0.9594654349 Rate of Right Ascen(r/s): -8.171768958e-09 SQRT(A) (m 1/2): 5153.597656 Right Ascen at Week(rad): -0.5386081437 Argument of Perigee(rad): 1.012244186 Mean Anom(rad): -0.7922246778 Af0(s): -5.426455078e-05 Af1(s/s): 0 week: 146 ******** Week 146 almanac for PRN-6 ******** ID: 6 Health: 0 Eccentricity: 0.002653598785 Time of Applicability(s): 61440 Orbital Inclination(rad): 0.9858606902 Rate of Right Ascen(r/s): -7.726036106e-09 SQRT(A) (m 1/2): 5153.613281 Right Ascen at Week(rad): -1.542333419 Argument of Perigee(rad): -0.9899250656 Mean Anom(rad): -3.081167444 Af0(s): 0.0001416907715 Af1(s/s): 1.091394e-11 week: 146 ******** Week 146 almanac for PRN-7 ******** ID: 7 Health: 0 Eccentricity: 0.01544904709 Time of Applicability(s): 61440 Orbital Inclination(rad): 0.9506150848 Rate of Right Ascen(r/s): -7.943188008e-09 SQRT(A) (m 1/2): 5153.646973 Right Ascen at Week(rad): 1.601610017 Argument of Perigee(rad): -2.29437574 Mean Anom(rad): 2.178752687 Af0(s): 0.0002404221069 Af1(s/s): 3.637979e-12 week: 146 ******** Week 146 almanac for PRN-8 ******** ID: 8 Health: 0 Eccentricity: 0.007184505463 Time of Applicability(s): 61440 Orbital Inclination(rad): 0.9652058786 Rate of Right Ascen(r/s): -7.886042771e-09 SQRT(A) (m 1/2): 5153.663086 Right Ascen at Week(rad): -2.613563586 Argument of Perigee(rad): 0.0874878379 Mean Anom(rad): -1.15158477 Af0(s): -4.220576172e-05 Af1(s/s): 0 week: 146 ******** Week 146 almanac for PRN-9 ******** ID: 9 Health: 0 Eccentricity: 0.002316474915 Time of Applicability(s): 61440 Orbital Inclination(rad): 0.9542283286 Rate of Right Ascen(r/s): -7.920329913e-09 SQRT(A) (m 1/2): 5153.583984 Right Ascen at Week(rad): 0.5295495677 Argument of Perigee(rad): 1.860498861 Mean Anom(rad): -0.8099062782 Af0(s): -0.0002818741943 Af1(s/s): 0 week: 146 ******** Week 146 almanac for PRN-10 ******** ID: 10 Health: 0 Eccentricity: 0.007462024689 Time of Applicability(s): 61440 Orbital Inclination(rad): 0.9723245082 Rate of Right Ascen(r/s): -8.023191341e-09 SQRT(A) (m 1/2): 5153.625977 Right Ascen at Week(rad): -0.5013177298 Argument of Perigee(rad): -2.529992342 Mean Anom(rad): 0.8276556643 Af0(s): -0.000238161084 Af1(s/s): -1.091394e-11 week: 146 ******** Week 146 almanac for PRN-11 ******** ID: 11 Health: 255 Eccentricity: 0.000289440155 Time of Applicability(s): 61440 Orbital Inclination(rad): 0.9615866427 Rate of Right Ascen(r/s): -8.000333246e-09 SQRT(A) (m 1/2): 5153.713867 Right Ascen at Week(rad): -1.489739524 Argument of Perigee(rad): 2.873121674 Mean Anom(rad): -1.308702827 Af0(s): -5.727924805e-05 Af1(s/s): -3.637979e-11 week: 146 ******** Week 146 almanac for PRN-12 ******** ID: 12 Health: 0 Eccentricity: 0.008610248566 Time of Applicability(s): 61440 Orbital Inclination(rad): 0.9707605669 Rate of Right Ascen(r/s): -8.011762293e-09 SQRT(A) (m 1/2): 5153.560547 Right Ascen at Week(rad): 2.714250549 Argument of Perigee(rad): 1.238013876 Mean Anom(rad): 1.519033839 Af0(s): -0.0001266172852 Af1(s/s): -7.275958e-12 week: 146 ******** Week 146 almanac for PRN-13 ******** ID: 13 Health: 0 Eccentricity: 0.005801200867 Time of Applicability(s): 61440 Orbital Inclination(rad): 0.9686153906 Rate of Right Ascen(r/s): -7.726036106e-09 SQRT(A) (m 1/2): 5153.629395 Right Ascen at Week(rad): 0.6820038888 Argument of Perigee(rad): 0.9675610039 Mean Anom(rad): -1.754398024 Af0(s): 0.0001974626709 Af1(s/s): 7.275958e-12 week: 146 ******** Week 146 almanac for PRN-14 ******** ID: 14 Health: 0 Eccentricity: 0.0013422966 Time of Applicability(s): 61440 Orbital Inclination(rad): 0.9541504311 Rate of Right Ascen(r/s): -8.171768958e-09 SQRT(A) (m 1/2): 5153.587891 Right Ascen at Week(rad): 2.683326006 Argument of Perigee(rad): 3.037489813 Mean Anom(rad): 1.561835498 Af0(s): -5.878659668e-05 Af1(s/s): -3.637979e-12 week: 146 ******** Week 146 almanac for PRN-15 ******** ID: 15 Health: 0 Eccentricity: 0.01392936707 Time of Applicability(s): 61440 Orbital Inclination(rad): 0.9301160681 Rate of Right Ascen(r/s): -8.171768958e-09 SQRT(A) (m 1/2): 5153.672363 Right Ascen at Week(rad): 0.4241262137 Argument of Perigee(rad): 1.071534641 Mean Anom(rad): -2.159460706 Af0(s): -7.084538574e-05 Af1(s/s): 3.637979e-12 week: 146 ******** Week 146 almanac for PRN-16 ******** ID: 16 Health: 0 Eccentricity: 0.01268434525 Time of Applicability(s): 61440 Orbital Inclination(rad): 0.9707306063 Rate of Right Ascen(r/s): -8.011762293e-09 SQRT(A) (m 1/2): 5153.538086 Right Ascen at Week(rad): 2.732874784 Argument of Perigee(rad): 0.6992357062 Mean Anom(rad): -0.3368203862 Af0(s): -0.0003632710205 Af1(s/s): -3.637979e-12 week: 146 ******** Week 146 almanac for PRN-17 ******** ID: 17 Health: 0 Eccentricity: 0.01368093491 Time of Applicability(s): 61440 Orbital Inclination(rad): 0.9802580651 Rate of Right Ascen(r/s): -7.726036106e-09 SQRT(A) (m 1/2): 5153.702148 Right Ascen at Week(rad): -2.532032282 Argument of Perigee(rad): -1.50522127 Mean Anom(rad): -1.246084128 Af0(s): 0.0004469288696 Af1(s/s): 3.637979e-12 week: 146 ******** Week 146 almanac for PRN-18 ******** ID: 18 Health: 0 Eccentricity: 0.002090930939 Time of Applicability(s): 61440 Orbital Inclination(rad): 0.9702692136 Rate of Right Ascen(r/s): -7.886042771e-09 SQRT(A) (m 1/2): 5153.57959 Right Ascen at Week(rad): -1.525901548 Argument of Perigee(rad): 3.111957165 Mean Anom(rad): 3.030725092 Af0(s): 0.0002019847168 Af1(s/s): -7.275958e-12 week: 146 ******** Week 146 almanac for PRN-19 ******** ID: 19 Health: 0 Eccentricity: 0.008944511414 Time of Applicability(s): 61440 Orbital Inclination(rad): 0.9789637688 Rate of Right Ascen(r/s): -7.737465153e-09 SQRT(A) (m 1/2): 5153.637207 Right Ascen at Week(rad): -2.487133009 Argument of Perigee(rad): 1.998743262 Mean Anom(rad): 1.156670949 Af0(s): 8.667254639e-05 Af1(s/s): 3.637979e-12 week: 146 ******** Week 146 almanac for PRN-20 ******** ID: 20 Health: 0 Eccentricity: 0.005264282227 Time of Applicability(s): 61440 Orbital Inclination(rad): 0.9415909634 Rate of Right Ascen(r/s): -8.354633718e-09 SQRT(A) (m 1/2): 5153.671875 Right Ascen at Week(rad): -0.652200994 Argument of Perigee(rad): 3.111554195 Mean Anom(rad): -2.39280892 Af0(s): 0.0004084914795 Af1(s/s): 0 week: 146 ******** Week 146 almanac for PRN-21 ******** ID: 21 Health: 0 Eccentricity: 0.0245513916 Time of Applicability(s): 61440 Orbital Inclination(rad): 0.9590699555 Rate of Right Ascen(r/s): -7.897471818e-09 SQRT(A) (m 1/2): 5153.544434 Right Ascen at Week(rad): -1.624377797 Argument of Perigee(rad): -1.020295713 Mean Anom(rad): -1.079666312 Af0(s): 0.0001236025879 Af1(s/s): 0 week: 146 ******** Week 146 almanac for PRN-22 ******** ID: 22 Health: 255 Eccentricity: 0.01276731491 Time of Applicability(s): 61440 Orbital Inclination(rad): 0.9613409661 Rate of Right Ascen(r/s): -7.806039438e-09 SQRT(A) (m 1/2): 5153.601074 Right Ascen at Week(rad): 0.6306102893 Argument of Perigee(rad): -1.876059253 Mean Anom(rad): -1.390864051 Af0(s): 0 Af1(s/s): 0 week: 146 ******** Week 146 almanac for PRN-23 ******** ID: 23 Health: 0 Eccentricity: 0.00196647644 Time of Applicability(s): 61440 Orbital Inclination(rad): 0.967357047 Rate of Right Ascen(r/s): -8.080336578e-09 SQRT(A) (m 1/2): 5153.64502 Right Ascen at Week(rad): -0.526052421 Argument of Perigee(rad): 2.929882334 Mean Anom(rad): 2.16624902 Af0(s): 6.783068848e-06 Af1(s/s): -3.637979e-12 week: 146 ******** Week 146 almanac for PRN-24 ******** ID: 24 Health: 0 Eccentricity: 0.01230478287 Time of Applicability(s): 61440 Orbital Inclination(rad): 0.9340948308 Rate of Right Ascen(r/s): -8.114623721e-09 SQRT(A) (m 1/2): 5153.641602 Right Ascen at Week(rad): 1.519219968 Argument of Perigee(rad): 0.8027501979 Mean Anom(rad): -3.13737608 Af0(s): 0.0002185655518 Af1(s/s): 0 week: 146 ******** Week 146 almanac for PRN-25 ******** ID: 25 Health: 0 Eccentricity: 0.01041173935 Time of Applicability(s): 61440 Orbital Inclination(rad): 0.9581351859 Rate of Right Ascen(r/s): -8.137481816e-09 SQRT(A) (m 1/2): 5153.663574 Right Ascen at Week(rad): 2.637827147 Argument of Perigee(rad): 0.9729093388 Mean Anom(rad): 1.28119978 Af0(s): 0.0002178118774 Af1(s/s): 7.275958e-12 week: 146 ******** Week 146 almanac for PRN-26 ******** ID: 26 Health: 0 Eccentricity: 0.006818294525 Time of Applicability(s): 61440 Orbital Inclination(rad): 0.938954434 Rate of Right Ascen(r/s): -8.343204671e-09 SQRT(A) (m 1/2): 5153.626953 Right Ascen at Week(rad): 2.591271804 Argument of Perigee(rad): 0.3536795691 Mean Anom(rad): 0.6318521546 Af0(s): 0.0001401834229 Af1(s/s): 3.637979e-12 week: 146 ******** Week 146 almanac for PRN-27 ******** ID: 27 Health: 0 Eccentricity: 0.01008844376 Time of Applicability(s): 61440 Orbital Inclination(rad): 0.9738884496 Rate of Right Ascen(r/s): -7.806039438e-09 SQRT(A) (m 1/2): 5153.604492 Right Ascen at Week(rad): -2.594329279 Argument of Perigee(rad): 0.6319618852 Mean Anom(rad): -1.215236359 Af0(s): 6.707701416e-05 Af1(s/s): 2.182787e-11 week: 146 ******** Week 146 almanac for PRN-29 ******** ID: 29 Health: 0 Eccentricity: 0.001785755157 Time of Applicability(s): 61440 Orbital Inclination(rad): 0.9822414543 Rate of Right Ascen(r/s): -7.703178011e-09 SQRT(A) (m 1/2): 5153.71875 Right Ascen at Week(rad): -2.519070219 Argument of Perigee(rad): 2.276669796 Mean Anom(rad): -1.098675915 Af0(s): -0.0003723151123 Af1(s/s): -3.637979e-12 week: 146 ******** Week 146 almanac for PRN-30 ******** ID: 30 Health: 0 Eccentricity: 0.005431175232 Time of Applicability(s): 61440 Orbital Inclination(rad): 0.9357905986 Rate of Right Ascen(r/s): -8.103194673e-09 SQRT(A) (m 1/2): 5153.531738 Right Ascen at Week(rad): 1.615100883 Argument of Perigee(rad): -2.750678474 Mean Anom(rad): 2.199416112 Af0(s): -0.0004017084106 Af1(s/s): -3.637979e-12 week: 146 ******** Week 146 almanac for PRN-31 ******** ID: 31 Health: 0 Eccentricity: 0.01047039032 Time of Applicability(s): 61440 Orbital Inclination(rad): 0.9548455162 Rate of Right Ascen(r/s): -7.908900866e-09 SQRT(A) (m 1/2): 5153.625977 Right Ascen at Week(rad): 1.619619685 Argument of Perigee(rad): 0.3689815517 Mean Anom(rad): 1.727494562 Af0(s): -0.0001273709595 Af1(s/s): -3.637979e-12 week: 146 ******** Week 146 almanac for PRN-32 ******** ID: 32 Health: 0 Eccentricity: 0.005456447601 Time of Applicability(s): 61440 Orbital Inclination(rad): 0.958087249 Rate of Right Ascen(r/s): -7.874613723e-09 SQRT(A) (m 1/2): 5153.716797 Right Ascen at Week(rad): 0.5406488325 Argument of Perigee(rad): -2.36924344 Mean Anom(rad): -0.5426663018 Af0(s): -4.371311035e-05 Af1(s/s): -7.275958e-12 week: 146